Regional Weather Roundup
Issued by NWS

Home | Current Version | Previous Version | Text Only | Print | Product List | Glossary Off
Versions: 1 2 3 4 5 6 7 8 9 10 11 12 13 14 15 16 17 18 19 20 21 22 23 24 25 26 27 28 29 30 31 32 33 34 35 36 37 38 39 40 41 42 43 44 45 46 47 48 49 50

000
ASUS43 KIND 201009
RWRIN

WEATHER ROUNDUP FOR INDIANA
NATIONAL WEATHER SERVICE INDIANAPOLIS IN
600 AM EDT WED SEP 20 2017

NOTE: "FAIR" INDICATES FEW OR NO CLOUDS BELOW 12,000 FEET WITH NO
SIGNIFICANT WEATHER AND/OR OBSTRUCTIONS TO VISIBILITY.

* - STATION DOES NOT REPORT WEATHER SUCH AS PRECIPITATION OR FOG.

+ - STATION NOT QUALITY CONTROLLED BY THE NATIONAL WEATHER SERVICE.
    USE DATA WITH CAUTION...ESPECIALLY DEWPOINT AND RELATIVE
    HUMIDITY OBSERVATIONS.

INZ001>003-010>013-019-020-201100-
NORTHWEST INDIANA

CITY           SKY/WX    TMP DP  RH WIND       PRES   REMARKS
GARY /AIRPORT/ PTCLDY    64  64 100 CALM      29.93S FOG
KNOX *+          N/A     55  55 100 CALM      29.95R VSB 1/4
LA PORTE +     FOG       60  60  99 CALM      29.96R VSB 1/2
MICHIGAN CITY+ FOG       59  59 100 CALM      29.95S VSB 1/4
MONTICELLO +   CLEAR     64  62  94 CALM      29.94R FOG
RENSSELAER +   PTCLDY    55  54  94 NE5       29.94R FOG
VALPARAISO     FOG       59  59 100 NE3       29.95R VSB 1/4

$$

LMZ046-743>745-201100-
SOUTHERN LAKE MICHIGAN

STATION/POSITION TIME  TEMP    WIND        PRES    WAVE
                       AIR SEA DIR/SP/G            HT
                 (UTC) (F)     (DEG/KT/KT) (MB)    (FT)
BURNS HARBOR     0940   67     170/  5/  9 1014.2R
MICHIGAN CITY    0940   64     130/  5/  6   N/A
5NW MICH CITY    1000   66 68  170/  4/  4   N/A     1

$$

INZ004-005-014>016-021>024-201100-
NORTH CENTRAL INDIANA

CITY           SKY/WX    TMP DP  RH WIND       PRES   REMARKS
GOSHEN         FOG       65  63  93 CALM      29.96R VSB 1/4
LOGANSPORT +   FOG       59  59 100 CALM      29.96R VSB 1/4
PERU/GRISSOM   CLEAR     64  64 100 SE3       29.95R FOG
ROCHESTER +    CLOUDY    63  63 100 CALM      29.96R FOG
SOUTH BEND     FOG       63  63 100 E3        29.96R VSB 1/4
WARSAW +       CLOUDY    59  59 100 CALM      29.96R FOG

$$

INZ006>009-017-018-025>027-201100-
NORTHEAST INDIANA

CITY           SKY/WX    TMP DP  RH WIND       PRES   REMARKS
AUBURN +       FOG       64  63  94 CALM      29.98R VSB 1/4
FORT WAYNE     FOG       63  61  93 S3        29.97R VSB 1/4
HUNTINGTON +   PTCLDY    63  62  96 CALM      29.96R FOG
KENDALLVILLE + FOG       64  64 100 CALM      29.97R VSB 1/4

$$

INZ028-029-035-036-043>045-051>053-201100-
WEST CENTRAL INDIANA

CITY           SKY/WX    TMP DP  RH WIND       PRES   REMARKS
CRAWFORDSVL +  CLEAR     63  63 100 CALM      29.95R FOG
GREENCASTLE +  FOG       61  61 100 CALM      29.96R VSB 1/4
LAFAYETTE      CLEAR     63  63 100 CALM      29.93R FOG
TERRE HAUTE    CLEAR     65  64  97 E3        29.94R FOG

$$

INZ030>032-037>040-046>048-054>057-064-065-201100-
CENTRAL INDIANA

CITY           SKY/WX    TMP DP  RH WIND       PRES   REMARKS
CP ATTERBURY + FOG       64  63  94 CALM      29.97R VSB 1/4
FISHERS *+     MOCLDY    64  64 100 CALM      29.97
FRANKFORT +    PTCLDY    64  63  96 CALM      29.96S FOG
GREENWOOD *+   CLOUDY    69  69  99 S3        29.97R
INDIANAPOLIS   PTCLDY    67  66  97 CALM      29.96R
-EAGLE CREEK   MOCLDY    67  65  93 S3        29.95R
KOKOMO +       FOG       63  63 100 S5        29.97R VSB 1/2
MT COMFORT *+    N/A    N/A N/A N/A MISG        N/A
SHELBYVILLE    FOG       67  65  93 S6        29.96R VSB 1/2
ZIONSVILLE +   FOG       64  64 100 CALM      29.97R VSB 1/2

$$

INZ033-034-041-042-049-050-058-059-201100-
EAST CENTRAL INDIANA

CITY           SKY/WX    TMP DP  RH WIND       PRES   REMARKS
MUNCIE         MOCLDY    69  65  86 SW7       29.97R
RICHMOND +     FOG       61  61 100 CALM      30.00R VSB 3/4

$$

INZ060-061-067>069-081>083-085>088-201100-
SOUTHWEST INDIANA

CITY           SKY/WX    TMP DP  RH WIND       PRES   REMARKS
EVANSVILLE     CLEAR     69  67  93 CALM      29.94R
HUNTINGBURG +    N/A    N/A N/A N/A MISG        N/A
WASHINGTON +   MOCLDY    67  65  94 SE5       29.94R FOG

$$

INZ062-063-066-070>080-084-089>092-201100-
SOUTH CENTRAL AND SOUTHEAST INDIANA

CITY           SKY/WX    TMP DP  RH WIND       PRES   REMARKS
BEDFORD +      FOG       66  64  94 CALM      29.95S VSB 1/4
BLOOMINGTON    FOG       65  62  90 CALM      29.95S VSB 1/2
MADISON *+     CLOUDY    64  64 100 CALM      29.99R VSB<1/4
NORTH VERNON + CLEAR     61  61 100 CALM      29.98R FOG
SEYMOUR +      FOG       66  66 100 CALM      29.96R VSB 1/4

$$





USA.gov is the U.S. government's official web portal to all federal, state and local government web resources and services.